Location: Chateh
(58.6667°N, 118.6000°W)
Time: 10:39:33
(UTC+00:00)

PCSat - Pass Details

Date: 08 December 2023
Orbit: 784 x 791 km, 67.0° (Epoch: 01 March)

Event Time Altitude Azimuth Distance (km) Brightness Sun altitude
Exits shadow 10:57:38 18° 80° (E) 1,841 12.0 -40.7°
Drops below altitude 10° 10:59:39 10° 61° (ENE) 2,361 12.7 -40.4°
Sets 11:02:28 0° 48° (NE) 3,296 13.6 -40.1°
